[[{"header":{"parameterUnit":"m.s-1","parameterCategory":2,"la1":30.2991,"la2":30.254,"lo1":-89.0895,"lo2":-89.0444,"dy":0.0017,"dx":0.0017,"nx":28,"ny":28,"refTime":"2024-07-01T21:00:00:Z","depth":"0","parameterNumber":2,"parameterNumberName":"U-component_of_CURRENTS"},"data":[0,0,0,0,0,0,0,0,0,0,0,0,0,0,0,0,0,0,0,0,0,0,0,0,0,0,0,0,0,0,0,0,0,0,0,0,0,0,0,0,0,0,0,0,0,0,0,0,0,0,0,0,0,0,0,0,0,0,0.3808,0.3808,0,0.3785,0.3784,0.3784,0.3745,0.3745,0.3745,0.3745,0.3661,0.3659,0.3657,0,0,0,0,0,0,0,0,0,0,0,0,0,0.3817,0.3817,0.3808,0.3808,0.3809,0.3785,0.3784,0.3783,0.3745,0.3745,0.3745,0.3745,0.3662,0.3659,0.3657,0,0,0,0,0,0,0,0,0,0,0,0,0,0.3799,0.3816,0.3808,0.3792,0.3791,0.3786,0.3784,0.3783,0.3745,0.3745,0.3745,0.3745,0.3663,0.366,0.3656,0.3637,0,0,0.3646,0.3645,0,0,0,0,0,0,0,0,0.38,0.3797,0.3794,0.3793,0.3792,0.3775,0.3758,0.3734,0.3745,0.3755,0.3745,0.3745,0.3698,0.3692,0.3678,0.3633,0.363,0.3646,0.3644,0.3643,0.3642,0,0,0,0,0,0,0,0.3801,0.3798,0.3791,0.3795,0.3794,0.3787,0.3783,0.3752,0.372,0.3754,0.3753,0.3762,0.3696,0.3682,0.3676,0.3628,0.3646,0.3643,0.3641,0.364,0.3658,0.366,0,0,0,0,0,0,0.3819,0.3799,0.3792,0.3791,0.3804,0.3787,0.3783,0.3774,0.3722,0.3716,0.3762,0.3761,0.3687,0.368,0.3673,0.3728,0.3643,0.3639,0.3638,0.3656,0.3659,0.3661,0,0,0,0,0,0,0.3819,0.3818,0.3793,0.3802,0.3799,0.3788,0.3778,0.3774,0.3766,0.373,0.3722,0.3761,0.3687,0.3677,0.3682,0.3721,0.3638,0.3635,0.3653,0.3656,0.366,0.3786,0,0,0,0,0,0,0.3819,0.3817,0.381,0.3803,0.38,0.3792,0.3779,0.3774,0.3775,0.3773,0.3726,0.3718,0.3686,0.3687,0.3679,0.3715,0.3632,0.365,0.3654,0.3659,0.3779,0.3794,0.3807,0,0,0,0,0,0.3819,0.3804,0.3809,0.3809,0.3792,0.3793,0.379,0.3777,0.3776,0.377,0.3767,0.372,0.3711,0.3687,0.3676,0.3712,0.3647,0.3653,0.3658,0.3773,0.3791,0.3806,0,0,0,0,0,0,0.3795,0.3799,0.3805,0.379,0.3799,0.379,0.3783,0.3785,0.3775,0.3776,0.3742,0.3735,0.376,0.3719,0.3693,0.3735,0.3674,0.3678,0.3765,0.3781,0.3795,0.3797,0.363,0,0,0,0,0,0.3793,0.3783,0.3797,0.3784,0.3793,0.3793,0.3792,0.3791,0.3789,0.3784,0.3767,0.3759,0.3773,0.3763,0.3756,0.3762,0.3788,0.3783,0.3797,0.3809,0.3806,0.3934,0.396,0.3679,0.3679,0.3679,0,0,0.3777,0.3783,0.3774,0.378,0.3782,0.3804,0.3789,0.3793,0.3816,0.3776,0.3796,0.3803,0.3789,0.3818,0.3824,0.3786,0.3903,0.3816,0.3826,0.3817,0.3942,0.397,0.3995,0.3683,0.3682,0.3682,0,0,0.3757,0.3753,0.3749,0.3769,0.3792,0.3801,0.3811,0.3822,0.3829,0.3852,0.3859,0.39,0.3875,0.3905,0.3911,0.3992,0.3981,0.3982,0.404,0.4165,0.419,0.4212,0.4284,0.4312,0.3979,0.398,0.398,0,0.3745,0.3744,0.3748,0.3771,0.3795,0.381,0.3834,0.3847,0.3863,0.3893,0.3869,0.3941,0.3925,0.401,0.404,0.4024,0.4076,0.3979,0.4186,0.4208,0.4229,0.4298,0.4326,0.3986,0.3985,0.3985,0.3984,0,0.3731,0.3749,0.3752,0.3791,0.3815,0.3833,0.3877,0.3903,0.3922,0.3955,0.4037,0.4049,0.4096,0.4109,0.4088,0.4228,0.4213,0.4202,0.4148,0.4265,0.4329,0.4357,0.3996,0.3993,0.3991,0.399,0,0,0.3668,0.3729,0.3734,0.3761,0.3832,0.384,0.391,0.3973,0.4018,0.4068,0.4145,0.4205,0.4236,0.4247,0.4259,0.4348,0.4534,0.4331,0.4334,0.4408,0.4794,0.477,0.4797,0.4576,0.4581,0.4586,0.4783,0,0.3662,0.3697,0.3741,0.3789,0.3816,0.3881,0.3937,0.4007,0.4062,0.4139,0.4221,0.4285,0.4285,0.4312,0.4424,0.4502,0.4611,0.4479,0.4663,0.4667,0.4638,0.483,0.4563,0.4717,0.481,0.4814,0.4818,0,0.364,0.3672,0.3713,0.3794,0.3811,0.3849,0.3946,0.4001,0.4139,0.4188,0.4313,0.4364,0.4517,0.4483,0.4733,0.4655,0.4739,0.4795,0.4805,0.4753,0.4696,0.4614,0.4763,0.4524,0.486,0.4856,0.4853,0,0.3576,0.3651,0.3677,0.3706,0.3802,0.384,0.3896,0.4021,0.407,0.4233,0.4287,0.4484,0.4566,0.474,0.4872,0.4822,0.5133,0.5077,0.514,0.5137,0.4926,0.4896,0.4866,0.5276,0.5275,0.5275,0.5274,0,0.355,0.357,0.3645,0.3659,0.3692,0.3792,0.3844,0.3935,0.4071,0.4154,0.431,0.4412,0.4639,0.4826,0.4943,0.5152,0.5217,0.5196,0.5218,0.4961,0.4934,0.4726,0.4648,0.5282,0.528,0.5279,0.5278,0,0.3476,0.3527,0.3555,0.3641,0.366,0.3687,0.3783,0.3834,0.3976,0.4095,0.415,0.4399,0.4657,0.4872,0.5151,0.5227,0.526,0.5466,0.5129,0.511,0.4911,0.4851,0.4814,0.4695,0.5566,0.5567,0.5568,0,0.3438,0.3444,0.3503,0.3511,0.3546,0.3592,0.3629,0.3769,0.3845,0.4082,0.4151,0.4421,0.4614,0.5027,0.5231,0.5484,0.5287,0.5343,0.5203,0.491,0.486,0.4702,0.4591,0.4966,0.4961,0.4958,0.4955,0,0.337,0.3387,0.3408,0.342,0.3447,0.3465,0.3546,0.3576,0.3768,0.3905,0.4124,0.4291,0.4682,0.4846,0.517,0.5282,0.5028,0.5283,0.5072,0.449,0.4223,0.4111,0.4793,0.4926,0.4929,0.4931,0.4932,0.4934,0.3308,0.3301,0.3323,0.3327,0.3342,0.3344,0.3335,0.3458,0.3569,0.3764,0.4002,0.4192,0.44,0.4834,0.4933,0.4822,0.4908,0.463,0.4616,0.4508,0.4284,0.4903,0.5008,0.5011,0.5014,0.5017,0.5019,0,0.3237,0.3235,0.3231,0.3222,0.3187,0.3236,0.3279,0.3279,0.3381,0.362,0.3823,0.3941,0.4049,0.4184,0.4242,0.4133,0.3981,0.398,0.362,0.3576,0.4183,0.4039,0.3824,0.3824,0.3824,0.3824,0.3824,0.3825,0.3202,0.317,0.3168,0.308,0.306,0.3006,0.3005,0.305,0.3173,0.3289,0.3366,0.3495,0.3609,0.3627,0.3481,0.3435,0.3165,0.3055,0.3117,0.3415,0.3468,0.352,0.336,0.3006,0.3006,0.2287,0.2282,0.2277]},{"header":{"parameterUnit":"m.s-1","parameterCategory":2,"la1":30.2991,"la2":30.254,"lo1":-89.0895,"lo2":-89.0444,"dy":0.0017,"dx":0.0017,"nx":28,"ny":28,"refTime":"2024-07-01T21:00:00:Z","depth":"0","parameterNumber":3,"parameterNumberName":"V-component_of_CURRENTS"},"data":[0,0,0,0,0,0,0,0,0,0,0,0,0,0,0,0,0,0,0,0,0,0,0,0,0,0,0,0,0,0,0,0,0,0,0,0,0,0,0,0,0,0,0,0,0,0,0,0,0,0,0,0,0,0,0,0,0,0,0.0808,0.0807,0,0.0742,0.0741,0.0741,0.068,0.0679,0.0678,0.0677,0.0559,0.0557,0.0554,0,0,0,0,0,0,0,0,0,0,0,0,0,0.08,0.0801,0.0808,0.0807,0.0806,0.0742,0.0741,0.074,0.068,0.0679,0.0678,0.0677,0.056,0.0557,0.0554,0,0,0,0,0,0,0,0,0,0,0,0,0,0.0777,0.0801,0.0808,0.0768,0.0764,0.0742,0.0741,0.074,0.068,0.0679,0.0678,0.0677,0.0561,0.0557,0.0554,0.0556,0,0,0.0543,0.0541,0,0,0,0,0,0,0,0,0.0778,0.0777,0.0775,0.0771,0.0766,0.0717,0.0695,0.0676,0.068,0.0713,0.0677,0.0676,0.0607,0.06,0.0592,0.055,0.0545,0.0542,0.054,0.0539,0.0538,0,0,0,0,0,0,0,0.078,0.0779,0.0783,0.0774,0.0768,0.0725,0.0721,0.0691,0.0667,0.071,0.0705,0.0697,0.0605,0.0596,0.0589,0.0543,0.0542,0.0539,0.0537,0.0536,0.0499,0.05,0,0,0,0,0,0,0.0793,0.0781,0.0785,0.0781,0.0768,0.0726,0.0722,0.0735,0.0668,0.0657,0.0698,0.0694,0.0602,0.0593,0.0584,0.0618,0.0539,0.0535,0.0533,0.0497,0.0499,0.05,0,0,0,0,0,0,0.0793,0.0795,0.0787,0.0777,0.0773,0.0728,0.0742,0.0734,0.0723,0.066,0.0648,0.0696,0.0601,0.0589,0.0565,0.0611,0.0534,0.053,0.0496,0.0498,0.0499,0.0662,0,0,0,0,0,0,0.0794,0.0796,0.0815,0.0779,0.0774,0.079,0.0743,0.0734,0.072,0.0715,0.0654,0.0642,0.0599,0.0571,0.0562,0.0605,0.0527,0.0494,0.0497,0.0499,0.0655,0.0669,0.0681,0,0,0,0,0,0.0794,0.0824,0.0817,0.0817,0.0802,0.0791,0.0786,0.0748,0.0721,0.0731,0.0686,0.0644,0.0578,0.0569,0.0558,0.0601,0.0493,0.0496,0.0499,0.0649,0.0666,0.0681,0,0,0,0,0,0,0.0821,0.082,0.0811,0.0837,0.0823,0.0781,0.0782,0.0757,0.073,0.0719,0.0657,0.0643,0.0639,0.0592,0.0584,0.0594,0.053,0.053,0.0648,0.0664,0.0676,0.0697,0.0524,0,0,0,0,0,0.0841,0.0871,0.0849,0.0871,0.0865,0.0826,0.0817,0.0794,0.0761,0.0747,0.0711,0.0668,0.0643,0.063,0.0595,0.0603,0.0547,0.0621,0.0634,0.0645,0.0653,0.0614,0.0625,0.0509,0.0509,0.0509,0,0,0.0856,0.086,0.0875,0.088,0.0861,0.0883,0.0818,0.0811,0.083,0.0739,0.0754,0.0709,0.0651,0.0662,0.0656,0.0629,0.0649,0.0649,0.066,0.0661,0.0618,0.063,0.064,0.0511,0.051,0.051,0,0,0.0899,0.0905,0.0941,0.0945,0.0932,0.0919,0.0922,0.0893,0.0879,0.0882,0.0827,0.0812,0.077,0.0753,0.0734,0.0795,0.0715,0.0781,0.0873,0.0836,0.0846,0.0854,0.0802,0.0804,0.0794,0.0794,0.0795,0,0.0915,0.0968,0.0947,0.0983,0.0999,0.0945,0.0986,0.0972,0.0943,0.0949,0.0904,0.0868,0.0819,0.0842,0.0862,0.0829,0.0781,0.0826,0.0856,0.0862,0.0867,0.0812,0.0812,0.0803,0.0802,0.0801,0.08,0,0.0986,0.1032,0.1049,0.1095,0.1109,0.1132,0.1116,0.1126,0.11,0.1088,0.1091,0.1024,0.1003,0.0993,0.0944,0.0972,0.0917,0.0875,0.0824,0.0889,0.0826,0.0823,0.0814,0.0811,0.0809,0.0807,0,0,0.1013,0.1089,0.1097,0.1145,0.1173,0.1191,0.1234,0.1261,0.1296,0.1257,0.1294,0.1251,0.1205,0.1178,0.1119,0.1091,0.1086,0.1008,0.1002,0.097,0.0991,0.0966,0.0958,0.1048,0.1048,0.1049,0.0935,0,0.1074,0.1175,0.1198,0.1298,0.1348,0.1345,0.1396,0.1414,0.1407,0.143,0.1363,0.1361,0.1277,0.1265,0.123,0.1124,0.1085,0.112,0.092,0.0914,0.0894,0.0957,0.0933,0.0831,0.0931,0.093,0.093,0,0.1142,0.1203,0.1312,0.1416,0.1436,0.1492,0.1569,0.1606,0.1622,0.1613,0.16,0.1531,0.1498,0.1397,0.1262,0.1286,0.1152,0.1057,0.1049,0.0966,0.0883,0.0778,0.0821,0.0612,0.0924,0.0924,0.0925,0,0.1177,0.1291,0.1385,0.142,0.1519,0.157,0.162,0.1666,0.1704,0.1723,0.1741,0.168,0.164,0.1491,0.1299,0.1273,0.1132,0.1065,0.0912,0.0907,0.0818,0.0806,0.0647,0.0953,0.0953,0.0954,0.0954,0,0.1245,0.1321,0.1412,0.1463,0.1576,0.1627,0.1734,0.1772,0.1826,0.1891,0.1829,0.1845,0.1657,0.1548,0.1354,0.1145,0.117,0.0941,0.0888,0.0874,0.0868,0.0624,0.0546,0.0949,0.095,0.0951,0.0952,0,0.1272,0.1336,0.1443,0.1555,0.1596,0.1672,0.1796,0.187,0.1918,0.1996,0.1999,0.1962,0.184,0.164,0.1405,0.1221,0.0909,0.0922,0.0919,0.0868,0.0532,0.0466,0.0273,0.0223,0.0736,0.0735,0.0734,0,0.1298,0.1356,0.1487,0.1548,0.1603,0.1719,0.1803,0.1898,0.1979,0.2066,0.2105,0.203,0.2005,0.1682,0.1357,0.1043,0.0863,0.0785,0.0732,0.0527,0.0413,0.0361,0.033,0.0665,0.0663,0.0662,0.0661,0,0.1327,0.1368,0.1447,0.1569,0.1671,0.1794,0.1923,0.2,0.2118,0.2203,0.2294,0.2289,0.2012,0.1721,0.1305,0.1058,0.0674,0.0749,0.0534,0.0357,0.0292,0.0214,0.0712,0.0651,0.0652,0.0653,0.0653,0.0654,0.1325,0.1379,0.1474,0.159,0.1712,0.1854,0.1949,0.2097,0.2245,0.2403,0.2429,0.2462,0.2032,0.1483,0.1157,0.0515,0.0578,0.0303,0.0241,0.0206,0.0164,0.0648,0.0535,0.0535,0.0536,0.0536,0.0536,0,0.1305,0.1378,0.1488,0.1632,0.1753,0.1831,0.2017,0.2121,0.2298,0.2485,0.2607,0.238,0.1858,0.1289,0.0465,0.0068,-0.0052,-0.0151,-0.0254,-0.0258,0.0145,0.0147,-0.005,-0.005,-0.0049,-0.0049,-0.0049,-0.0049,0.1295,0.1378,0.1446,0.1626,0.1737,0.1893,0.1996,0.2172,0.2327,0.2513,0.2531,0.2543,0.2046,0.0699,-0.0249,-0.045,-0.0657,-0.0708,-0.0785,-0.0561,-0.0525,-0.049,-0.051,-0.0842,-0.0843,-0.1165,-0.1169,-0.1172]}],[{"header":{"parameterUnit":"m.s-1","parameterCategory":2,"la1":30.2991,"la2":30.254,"lo1":-89.0895,"lo2":-89.0444,"dy":0.0017,"dx":0.0017,"nx":28,"ny":28,"refTime":"2024-07-01T21:00:00:Z","depth":"2","parameterNumber":2,"parameterNumberName":"U-component_of_CURRENTS"},"data":[0,0,0,0,0,0,0,0,0,0,0,0,0,0,0,0,0,0,0,0,0,0,0,0,0,0,0,0,0,0,0,0,0,0,0,0,0,0,0,0,0,0,0,0,0,0,0,0,0,0,0,0,0,0,0,0,0,0,0.3825,0.3825,0,0.3791,0.379,0.3789,0.3772,0.3772,0.3773,0.3773,0.3694,0.3691,0.3689,0,0,0,0,0,0,0,0,0,0,0,0,0,0.3825,0.3825,0.3825,0.3825,0.3825,0.3791,0.379,0.3789,0.3772,0.3772,0.3773,0.3773,0.3694,0.3692,0.3688,0,0,0,0,0,0,0,0,0,0,0,0,0,0.3806,0.3825,0.3825,0.3816,0.3815,0.3791,0.379,0.3789,0.3772,0.3772,0.3773,0.3773,0.3695,0.3692,0.3688,0.3651,0,0,0.3676,0.3675,0,0,0,0,0,0,0,0,0.3807,0.3806,0.3818,0.3817,0.3816,0.3791,0.3761,0.3742,0.3771,0.3783,0.3773,0.3774,0.3725,0.3719,0.3704,0.3648,0.3644,0.3676,0.3674,0.3672,0.3671,0,0,0,0,0,0,0,0.3809,0.3807,0.3807,0.3818,0.3817,0.3797,0.3795,0.3757,0.3746,0.3782,0.3782,0.3786,0.3723,0.3708,0.3702,0.3643,0.3676,0.3673,0.3671,0.3669,0.3615,0.3616,0,0,0,0,0,0,0.3825,0.3808,0.3808,0.3806,0.3819,0.3797,0.3794,0.3794,0.3747,0.3742,0.3785,0.3785,0.3714,0.3707,0.3699,0.3698,0.3672,0.3669,0.3667,0.3614,0.3615,0.3616,0,0,0,0,0,0,0.3825,0.3825,0.3809,0.3811,0.3808,0.3797,0.3796,0.3793,0.3781,0.3751,0.3745,0.3778,0.3714,0.3705,0.3682,0.3693,0.3667,0.3664,0.3613,0.3615,0.3616,0.3667,0,0,0,0,0,0,0.3825,0.3825,0.3813,0.3812,0.3809,0.3799,0.3796,0.3792,0.3785,0.3784,0.3742,0.3735,0.3714,0.3688,0.3678,0.3688,0.3661,0.3612,0.3614,0.3616,0.3664,0.367,0.3675,0,0,0,0,0,0.3825,0.3801,0.3812,0.3812,0.3798,0.3799,0.3795,0.3786,0.3784,0.3777,0.376,0.3737,0.3691,0.3685,0.3673,0.3682,0.3612,0.3614,0.3615,0.3662,0.3669,0.3675,0,0,0,0,0,0,0.3783,0.3798,0.381,0.379,0.3802,0.3799,0.3779,0.3786,0.3764,0.3761,0.3735,0.3727,0.3719,0.369,0.3684,0.3675,0.3652,0.3652,0.3691,0.3697,0.3702,0.3721,0.3657,0,0,0,0,0,0.3775,0.3761,0.3788,0.3768,0.3777,0.3781,0.3775,0.3782,0.3773,0.3764,0.3735,0.3716,0.3716,0.3699,0.3683,0.3659,0.3693,0.3663,0.3668,0.3673,0.3682,0.3763,0.3777,0.3623,0.3623,0.3623,0,0,0.3746,0.3757,0.3744,0.3758,0.3761,0.3769,0.3777,0.3775,0.3782,0.3757,0.373,0.3728,0.3717,0.3709,0.3702,0.3685,0.3736,0.3675,0.3679,0.3686,0.3766,0.3782,0.3795,0.3624,0.3624,0.3623,0,0,0.3698,0.3704,0.3688,0.3709,0.3732,0.3743,0.375,0.3755,0.3758,0.375,0.3751,0.3761,0.3718,0.3731,0.3733,0.3753,0.3768,0.3742,0.3771,0.3849,0.3863,0.3876,0.3949,0.3967,0.3736,0.3737,0.3737,0,0.3668,0.366,0.3681,0.3691,0.3703,0.3737,0.3742,0.3752,0.3746,0.3764,0.3748,0.3759,0.3739,0.3777,0.3786,0.3766,0.3813,0.3748,0.3859,0.3872,0.3884,0.3955,0.3975,0.3739,0.3739,0.3739,0.3738,0,0.3623,0.3627,0.3621,0.3649,0.3665,0.3671,0.3717,0.3729,0.3741,0.3763,0.3801,0.3794,0.3813,0.3809,0.3798,0.3873,0.3881,0.3866,0.3848,0.3903,0.3974,0.3994,0.3743,0.3742,0.3741,0.3741,0,0,0.3537,0.358,0.358,0.3602,0.365,0.3662,0.3695,0.3744,0.3782,0.3793,0.3843,0.3856,0.3879,0.3885,0.3886,0.3939,0.406,0.3936,0.3939,0.4016,0.4246,0.4127,0.4137,0.4073,0.4077,0.4079,0.4265,0,0.35,0.3506,0.354,0.3555,0.3572,0.3637,0.3669,0.3726,0.3773,0.3826,0.388,0.3919,0.3904,0.3926,0.3984,0.4047,0.4113,0.4011,0.4173,0.4178,0.4072,0.4156,0.3671,0.3785,0.4285,0.4288,0.4291,0,0.3454,0.3471,0.3475,0.3542,0.3555,0.3574,0.3661,0.3697,0.3807,0.3851,0.3929,0.3976,0.407,0.4039,0.4206,0.4148,0.4204,0.4245,0.4254,0.4137,0.4095,0.3807,0.3802,0.4324,0.4321,0.4319,0.4317,0,0.3391,0.3431,0.3431,0.3451,0.3525,0.3554,0.3599,0.3702,0.3751,0.3881,0.3941,0.4061,0.4135,0.4234,0.4335,0.4286,0.452,0.4463,0.4415,0.4408,0.4021,0.3973,0.4587,0.4587,0.4587,0.4586,0.4586,0,0.3343,0.3347,0.3406,0.3409,0.3437,0.3513,0.3567,0.364,0.3754,0.3835,0.395,0.4043,0.4191,0.4335,0.4397,0.4486,0.4587,0.4445,0.4454,0.4024,0.3976,0.4452,0.4433,0.4593,0.4592,0.459,0.4589,0,0.3269,0.3301,0.3316,0.3383,0.3405,0.3428,0.3529,0.3578,0.3704,0.382,0.3869,0.407,0.4268,0.4413,0.4601,0.4559,0.4654,0.4658,0.4146,0.4089,0.447,0.4452,0.4609,0.4606,0.4604,0.4602,0.4601,0,0.3224,0.3224,0.3276,0.3284,0.331,0.3364,0.3403,0.3529,0.3598,0.3835,0.3889,0.4125,0.4229,0.4461,0.4407,0.4482,0.4698,0.4147,0.3943,0.4483,0.4477,0.4462,0.4448,0.3462,0.3452,0.3443,0.3436,0,0.3148,0.3168,0.3183,0.32,0.3228,0.3265,0.3343,0.3382,0.3561,0.3667,0.3823,0.3915,0.4057,0.3901,0.4011,0.3993,0.4083,0.3971,0.4691,0.3529,0.3416,0.3405,0.3426,0.3358,0.3366,0.3371,0.3376,0.3379,0.309,0.3083,0.3102,0.3116,0.3134,0.3147,0.3146,0.3245,0.3322,0.3371,0.3556,0.3535,0.3532,0.3401,0.3363,0.3348,0.3608,0.3479,0.35,0.3532,0.3363,0.3251,0.3132,0.3138,0.3144,0.3149,0.3153,0,0.3011,0.3015,0.3018,0.3011,0.2978,0.304,0.3086,0.3041,0.307,0.3076,0.3069,0.2738,0.2619,0.2771,0.2517,0.2506,0.2413,0.2531,0.2359,0.2434,0.2502,0.2277,0.1761,0.1758,0.1756,0.1754,0,0,0.2965,0.2933,0.2938,0.2858,0.2852,0.2768,0.2767,0.2682,0.2652,0.247,0.2365,0.2341,0.2549,0.2076,0.2004,0.1875,0.2153,0.18,0.2886,0.2749,0.2814,0.2991,0.2722,0,0,0,0,0]},{"header":{"parameterUnit":"m.s-1","parameterCategory":2,"la1":30.2991,"la2":30.254,"lo1":-89.0895,"lo2":-89.0444,"dy":0.0017,"dx":0.0017,"nx":28,"ny":28,"refTime":"2024-07-01T21:00:00:Z","depth":"2","parameterNumber":3,"parameterNumberName":"V-component_of_CURRENTS"},"data":[0,0,0,0,0,0,0,0,0,0,0,0,0,0,0,0,0,0,0,0,0,0,0,0,0,0,0,0,0,0,0,0,0,0,0,0,0,0,0,0,0,0,0,0,0,0,0,0,0,0,0,0,0,0,0,0,0,0,-0.0058,-0.0058,0,-0.0069,-0.0069,-0.0069,-0.0092,-0.0092,-0.0093,-0.0093,-0.0156,-0.0158,-0.0159,0,0,0,0,0,0,0,0,0,0,0,0,0,-0.0112,-0.011,-0.0058,-0.0058,-0.0059,-0.0069,-0.0069,-0.0069,-0.0092,-0.0092,-0.0093,-0.0094,-0.0156,-0.0157,-0.0159,0,0,0,0,0,0,0,0,0,0,0,0,0,-0.01,-0.0109,-0.0058,-0.0072,-0.0074,-0.0069,-0.0069,-0.0069,-0.0091,-0.0092,-0.0093,-0.0094,-0.0156,-0.0157,-0.0159,-0.0152,0,0,-0.0164,-0.0165,0,0,0,0,0,0,0,0,-0.0101,-0.0098,-0.007,-0.0071,-0.0073,-0.0081,-0.0111,-0.0099,-0.0091,-0.0083,-0.0093,-0.0095,-0.0136,-0.014,-0.0137,-0.0154,-0.0157,-0.0164,-0.0165,-0.0166,-0.0167,0,0,0,0,0,0,0,-0.0102,-0.0098,-0.0061,-0.007,-0.0072,-0.0097,-0.0095,-0.0109,-0.0105,-0.0084,-0.0086,-0.0089,-0.0138,-0.0135,-0.0139,-0.0158,-0.0164,-0.0166,-0.0167,-0.0167,-0.0162,-0.0161,0,0,0,0,0,0,-0.0099,-0.0098,-0.0061,-0.0061,-0.0091,-0.0095,-0.0093,-0.0076,-0.0103,-0.0108,-0.0088,-0.009,-0.0132,-0.0137,-0.0141,-0.0116,-0.0166,-0.0168,-0.0169,-0.0164,-0.0162,-0.0161,0,0,0,0,0,0,-0.0099,-0.0094,-0.006,-0.0083,-0.008,-0.0093,-0.0074,-0.0076,-0.007,-0.0106,-0.0112,-0.0079,-0.0133,-0.0139,-0.0139,-0.012,-0.0168,-0.017,-0.0165,-0.0163,-0.0162,-0.0078,0,0,0,0,0,0,-0.0101,-0.0094,-0.0069,-0.0082,-0.0079,-0.0042,-0.0073,-0.0076,-0.0071,-0.0073,-0.01,-0.0107,-0.0134,-0.0137,-0.0141,-0.0123,-0.0171,-0.0166,-0.0164,-0.0162,-0.0082,-0.0074,-0.0067,0,0,0,0,0,-0.0102,-0.0062,-0.0067,-0.0062,-0.0047,-0.0041,-0.0041,-0.0054,-0.007,-0.0053,-0.0074,-0.0106,-0.0127,-0.0137,-0.0142,-0.0124,-0.0167,-0.0165,-0.0162,-0.0086,-0.0076,-0.0067,0,0,0,0,0,0,-0.0072,-0.0061,-0.0067,-0.0025,-0.0028,-0.0045,-0.0027,-0.0044,-0.0046,-0.0048,-0.0089,-0.0096,-0.0092,-0.0116,-0.0126,-0.0116,-0.0153,-0.0152,-0.0093,-0.0084,-0.0076,-0.0064,-0.0173,0,0,0,0,0,-0.0053,-0.0017,-0.0027,0.0009,0.001,-0.0007,-0.0004,-0.0015,-0.0026,-0.0027,-0.0049,-0.0071,-0.0085,-0.009,-0.0106,-0.0096,-0.0148,-0.0089,-0.0081,-0.0074,-0.0068,-0.0138,-0.0137,-0.0152,-0.0152,-0.0153,0,0,-0.0032,-0.0021,-0.0001,0.0018,0.0016,0.0036,-0.0006,0.0008,0.0023,-0.0034,-0.0014,-0.0043,-0.0076,-0.0067,-0.0067,-0.0084,-0.0094,-0.0071,-0.0065,-0.0063,-0.0135,-0.0134,-0.0133,-0.0151,-0.0151,-0.0151,0,0,0.0017,0.0038,0.0075,0.0082,0.0086,0.0079,0.0085,0.0074,0.007,0.0082,0.0041,0.0025,0.0014,-0.001,-0.0024,0.0019,-0.0052,0.0015,0.0067,-0.0001,-0.0001,-0.0001,-0.0056,-0.0063,0.0021,0.0021,0.0021,0,0.004,0.0087,0.0085,0.0116,0.013,0.0102,0.0134,0.0132,0.0122,0.0122,0.0102,0.0072,0.004,0.0037,0.0052,0.0036,-0.0013,0.0033,0.0008,0.0006,0.0004,-0.0053,-0.0061,0.0026,0.0025,0.0025,0.0024,0,0.0103,0.0145,0.0168,0.0203,0.0219,0.0245,0.0236,0.025,0.0238,0.0223,0.0217,0.0171,0.0151,0.0137,0.0109,0.0089,0.0057,0.0023,-0.0018,0.0011,-0.0051,-0.006,0.0032,0.003,0.0029,0.0028,0,0,0.0143,0.0202,0.021,0.0243,0.0268,0.0288,0.0322,0.0337,0.0361,0.0332,0.0346,0.0306,0.0268,0.0249,0.0201,0.0143,0.0088,0.0086,0.0081,0.0029,-0.0058,-0.0023,-0.0031,0.0042,0.0041,0.004,-0.0093,0,0.0191,0.0266,0.0282,0.0358,0.0396,0.0397,0.0434,0.0444,0.0441,0.045,0.0383,0.0381,0.0314,0.0308,0.0239,0.0134,0.0065,0.0127,-0.0076,-0.0081,-0.0057,-0.004,-0.0031,-0.0143,-0.0103,-0.0105,-0.0106,0,0.0244,0.0289,0.0366,0.0442,0.0459,0.0502,0.056,0.059,0.0588,0.0581,0.0552,0.05,0.0435,0.0365,0.0184,0.0226,0.0093,-0.0006,-0.0014,-0.0017,-0.0064,-0.0168,-0.0164,-0.0123,-0.0122,-0.012,-0.0119,0,0.027,0.0353,0.042,0.0445,0.0517,0.0559,0.0602,0.0629,0.0667,0.0665,0.0683,0.0588,0.0556,0.0378,0.0207,0.018,0.0,-0.0069,-0.017,-0.017,-0.0218,-0.0218,-0.0222,-0.0222,-0.0221,-0.0221,-0.0221,0,0.0318,0.0375,0.0443,0.048,0.0573,0.0608,0.07,0.0727,0.0768,0.083,0.0752,0.0769,0.0554,0.0439,0.024,0.0039,0.0022,-0.0156,-0.0199,-0.0185,-0.0181,-0.0209,-0.0206,-0.0226,-0.0225,-0.0224,-0.0223,0,0.0343,0.0384,0.0468,0.0553,0.059,0.0659,0.0775,0.0838,0.0869,0.0947,0.0954,0.0894,0.0765,0.0555,0.0289,0.0108,-0.0105,-0.0182,-0.013,-0.0164,-0.0254,-0.0244,-0.034,-0.034,-0.0339,-0.0339,-0.0339,0,0.0365,0.0408,0.0515,0.0573,0.0621,0.0726,0.0805,0.0879,0.0955,0.1033,0.1074,0.0998,0.0968,0.0623,0.0296,-0.0024,-0.0065,-0.0226,-0.0281,-0.0231,-0.0265,-0.0256,-0.0247,-0.0326,-0.0326,-0.0326,-0.0326,0,0.0401,0.0435,0.0503,0.0617,0.0713,0.0828,0.0951,0.1032,0.1136,0.1225,0.1319,0.1308,0.1,0.0699,0.0291,0.0064,-0.0169,-0.0232,-0.0213,-0.0267,-0.0221,-0.0253,-0.0245,-0.0324,-0.0324,-0.0324,-0.0325,-0.0325,0.0423,0.0476,0.0561,0.0674,0.0786,0.0931,0.1049,0.1198,0.1364,0.1491,0.1452,0.1431,0.107,0.0545,0.0215,-0.0133,-0.0161,-0.0319,-0.032,-0.0321,-0.0265,-0.0217,-0.031,-0.031,-0.0311,-0.0311,-0.0311,0,0.0442,0.051,0.0614,0.0756,0.0887,0.0943,0.1147,0.1294,0.153,0.1577,0.1634,0.1295,0.0962,0.0602,0.0072,-0.0255,-0.03,-0.0329,-0.0334,-0.0334,-0.0335,-0.028,-0.033,-0.0331,-0.0331,-0.0331,0,0,0.0454,0.0548,0.0607,0.0813,0.0926,0.1132,0.1265,0.1494,0.1609,0.1686,0.1634,0.1449,0.1043,0.0651,0.0222,-0.0037,-0.0105,-0.0087,-0.0048,-0.0006,-0.0002,-0.0317,-0.023,0,0,0,0,0]}],[{"header":{"parameterUnit":"m.s-1","parameterCategory":2,"la1":30.2991,"la2":30.254,"lo1":-89.0895,"lo2":-89.0444,"dy":0.0017,"dx":0.0017,"nx":28,"ny":28,"refTime":"2024-07-01T21:00:00:Z","depth":"4","parameterNumber":2,"parameterNumberName":"U-component_of_CURRENTS"},"data":[0,0,0,0,0,0,0,0,0,0,0,0,0,0,0,0,0,0,0,0,0,0,0,0,0,0,0,0,0,0,0,0,0,0,0,0,0,0,0,0,0,0,0,0,0,0,0,0,0,0,0,0,0,0,0,0,0,0,0.0887,0.0887,0,0.1034,0.1037,0.104,0.1308,0.1312,0.1315,0.1318,0.1278,0.1273,0.1269,0,0,0,0,0,0,0,0,0,0,0,0,0,0.093,0.0929,0.0887,0.0887,0.0888,0.1034,0.1037,0.1041,0.1307,0.1312,0.1316,0.132,0.1279,0.1274,0.1269,0,0,0,0,0,0,0,0,0,0,0,0,0,0.0994,0.0928,0.0887,0.1025,0.1038,0.1033,0.1037,0.1042,0.1306,0.1312,0.1317,0.1322,0.1281,0.1274,0.1268,0.1122,0,0,0.1248,0.1245,0,0,0,0,0,0,0,0,0.099,0.0994,0.1005,0.1015,0.1029,0.1143,0.1037,0.1053,0.1305,0.1223,0.1318,0.1325,0.1199,0.12,0.1244,0.112,0.1118,0.1247,0.1243,0.1241,0.1239,0,0,0,0,0,0,0,0.0985,0.099,0.0963,0.1004,0.1019,0.111,0.1126,0.1044,0.119,0.1231,0.1246,0.1233,0.1208,0.125,0.1244,0.1118,0.1248,0.1242,0.1238,0.1235,0.1421,0.1429,0,0,0,0,0,0,0.092,0.0984,0.0958,0.0966,0.1002,0.1103,0.1122,0.1115,0.1196,0.1209,0.1228,0.1244,0.1259,0.1251,0.1243,0.1432,0.1241,0.1235,0.1231,0.1412,0.1423,0.1432,0,0,0,0,0,0,0.092,0.0916,0.0952,0.0965,0.0974,0.1094,0.1086,0.1115,0.1187,0.1192,0.1208,0.1272,0.1262,0.1252,0.1295,0.1418,0.1232,0.1226,0.1402,0.1415,0.1427,0.1578,0,0,0,0,0,0,0.0921,0.0916,0.0929,0.096,0.097,0.0981,0.108,0.1113,0.116,0.1185,0.1231,0.1234,0.1266,0.1306,0.1289,0.1406,0.1221,0.139,0.1408,0.1423,0.1561,0.1594,0.1622,0,0,0,0,0,0.0923,0.0923,0.0929,0.0927,0.097,0.0979,0.0997,0.1112,0.1156,0.1196,0.1288,0.1234,0.1405,0.1303,0.1282,0.1401,0.1382,0.1403,0.1422,0.1548,0.1588,0.1622,0,0,0,0,0,0,0.0943,0.0948,0.0957,0.0957,0.0968,0.1019,0.1086,0.1094,0.1194,0.1249,0.1256,0.1266,0.1385,0.1361,0.1249,0.1531,0.1416,0.1432,0.152,0.1556,0.1587,0.1583,0.1215,0,0,0,0,0,0.0934,0.0977,0.0942,0.0962,0.0968,0.1009,0.1036,0.1085,0.1145,0.12,0.1247,0.1343,0.144,0.1467,0.1536,0.1579,0.1493,0.1686,0.1716,0.1741,0.1742,0.1744,0.177,0.1498,0.1497,0.1497,0,0,0.0943,0.0962,0.098,0.0975,0.1024,0.1038,0.1051,0.11,0.1145,0.1159,0.1304,0.1406,0.148,0.1642,0.1693,0.163,0.1773,0.1766,0.1785,0.1773,0.1767,0.1792,0.1813,0.1511,0.1509,0.1507,0,0,0.0979,0.1003,0.1034,0.1036,0.1064,0.1098,0.1089,0.1142,0.1223,0.1313,0.1417,0.1564,0.1671,0.1788,0.1845,0.2043,0.1933,0.2139,0.2262,0.2266,0.2284,0.23,0.2174,0.2177,0.2154,0.2154,0.2155,0,0.0992,0.1009,0.1042,0.1053,0.1077,0.111,0.112,0.1182,0.1261,0.1347,0.1401,0.1709,0.1745,0.1933,0.2113,0.2095,0.2068,0.2092,0.2291,0.2305,0.2318,0.2186,0.2187,0.2164,0.2163,0.2162,0.2161,0,0.1006,0.1037,0.1067,0.1115,0.1143,0.1172,0.1205,0.1294,0.1407,0.15,0.1733,0.1851,0.206,0.2136,0.2199,0.2384,0.232,0.231,0.2157,0.2352,0.2203,0.2201,0.2178,0.2174,0.2171,0.2169,0,0,0.0978,0.1062,0.1074,0.1112,0.1174,0.1198,0.1302,0.1412,0.1501,0.1697,0.1835,0.2132,0.2271,0.2353,0.2447,0.2484,0.2552,0.2501,0.2496,0.2302,0.251,0.2343,0.2322,0.2613,0.2615,0.2617,0.2345,0,0.0984,0.1034,0.1079,0.1158,0.1178,0.1263,0.1341,0.1464,0.162,0.177,0.1965,0.215,0.2324,0.245,0.2558,0.2571,0.2571,0.2622,0.2417,0.2407,0.2175,0.2324,0.2626,0.2343,0.2342,0.2341,0.2341,0,0.0959,0.1003,0.1062,0.118,0.12,0.1286,0.1459,0.1538,0.1747,0.1875,0.2148,0.2259,0.2474,0.2512,0.2641,0.2701,0.2659,0.2602,0.2589,0.2378,0.2241,0.2133,0.2335,0.2335,0.2336,0.2336,0.2336,0,0.0921,0.1004,0.108,0.1102,0.1212,0.1327,0.1459,0.1642,0.1774,0.1972,0.2085,0.2324,0.2451,0.2508,0.2555,0.2621,0.2533,0.2551,0.2302,0.2281,0.2427,0.2414,0.2532,0.2532,0.2533,0.2533,0.2534,0,0.0895,0.0952,0.1095,0.1127,0.1268,0.1355,0.1573,0.1696,0.1905,0.2017,0.221,0.2279,0.2483,0.2484,0.2498,0.2415,0.25,0.2322,0.2235,0.2497,0.2496,0.2419,0.2409,0.2523,0.2525,0.2527,0.2529,0,0.0816,0.0916,0.0995,0.1156,0.1265,0.1381,0.173,0.1804,0.2016,0.2138,0.2201,0.2336,0.2309,0.2351,0.2306,0.2303,0.2184,0.2083,0.2265,0.219,0.1921,0.1925,0.1793,0.1786,0.1779,0.1774,0.177,0,0.0796,0.0813,0.1018,0.1114,0.1233,0.1475,0.1588,0.1881,0.194,0.2111,0.2075,0.213,0.2166,0.1972,0.2048,0.1925,0.1926,0.1815,0.201,0.1934,0.1862,0.1876,0.1887,0.176,0.1758,0.1757,0.1755,0,0.0718,0.0789,0.086,0.1016,0.1197,0.1365,0.1574,0.1659,0.1828,0.2018,0.1938,0.1918,0.1832,0.183,0.1732,0.1668,0.1895,0.175,0.1766,0.1949,0.1892,0.183,0.1849,0.1733,0.1736,0.1738,0.174,0,0.0675,0.0703,0.0791,0.0912,0.109,0.1162,0.1349,0.1401,0.1561,0.1718,0.1658,0.1675,0.1766,0.1679,0.1587,0.153,0.155,0.1525,0.1553,0.1578,0.1653,0.1559,0.1222,0,0,0,0,0,0.0603,0.0602,0.0685,0.0807,0.0911,0.1029,0.1213,0.1342,0.152,0.14,0.1573,0.1458,0.1415,0.1445,0.1345,0.1472,0.153,0.1347,0.1512,0.1613,0.1638,0.1759,0,0,0,0,0,0,0.0557,0.0625,0.0624,0.0635,0.0676,0.0795,0.0922,0.1038,0.103,0.1206,0.1193,0.1337,0.1313,0.1427,0.1298,0.1304,0.1371,0.1402,0.1398,0.1599,0.1622,0.1642,0.1775,0,0,0,0,0]},{"header":{"parameterUnit":"m.s-1","parameterCategory":2,"la1":30.2991,"la2":30.254,"lo1":-89.0895,"lo2":-89.0444,"dy":0.0017,"dx":0.0017,"nx":28,"ny":28,"refTime":"2024-07-01T21:00:00:Z","depth":"4","parameterNumber":3,"parameterNumberName":"V-component_of_CURRENTS"},"data":[0,0,0,0,0,0,0,0,0,0,0,0,0,0,0,0,0,0,0,0,0,0,0,0,0,0,0,0,0,0,0,0,0,0,0,0,0,0,0,0,0,0,0,0,0,0,0,0,0,0,0,0,0,0,0,0,0,0,0.0001,0.0001,0,-0.0051,-0.0052,-0.0053,-0.0128,-0.0128,-0.0129,-0.013,-0.0203,-0.0204,-0.0206,0,0,0,0,0,0,0,0,0,0,0,0,0,0.0006,0.0006,0.0001,0.0001,0.0001,-0.0051,-0.0052,-0.0054,-0.0127,-0.0128,-0.0129,-0.013,-0.0203,-0.0204,-0.0206,0,0,0,0,0,0,0,0,0,0,0,0,0,-0.0022,0.0006,0.0001,-0.0038,-0.0041,-0.0051,-0.0052,-0.0054,-0.0127,-0.0128,-0.0129,-0.013,-0.0202,-0.0204,-0.0206,-0.0197,0,0,-0.0212,-0.0213,0,0,0,0,0,0,0,0,-0.0021,-0.0023,-0.0032,-0.0035,-0.0039,-0.0078,-0.0077,-0.0101,-0.0127,-0.0101,-0.013,-0.0131,-0.0158,-0.0164,-0.018,-0.0201,-0.0204,-0.0212,-0.0213,-0.0214,-0.0215,0,0,0,0,0,0,0,-0.0019,-0.0022,-0.0026,-0.0032,-0.0036,-0.0062,-0.0068,-0.0083,-0.0129,-0.0104,-0.0108,-0.0103,-0.0161,-0.0178,-0.0182,-0.0205,-0.0212,-0.0214,-0.0215,-0.0216,-0.0397,-0.04,0,0,0,0,0,0,0.0004,-0.0019,-0.0024,-0.0027,-0.0025,-0.0061,-0.0068,-0.007,-0.0128,-0.0136,-0.0102,-0.0106,-0.0174,-0.018,-0.0185,-0.0259,-0.0214,-0.0216,-0.0217,-0.0393,-0.0398,-0.0402,0,0,0,0,0,0,0.0004,0.0003,-0.0022,-0.0019,-0.0023,-0.0059,-0.0062,-0.007,-0.0085,-0.0125,-0.0135,-0.0107,-0.0175,-0.0182,-0.0247,-0.0259,-0.0217,-0.0219,-0.0389,-0.0395,-0.04,-0.0355,0,0,0,0,0,0,0.0004,0.0003,0.0001,-0.0018,-0.0022,-0.0039,-0.006,-0.007,-0.0077,-0.0084,-0.0133,-0.0141,-0.0177,-0.0244,-0.0249,-0.0261,-0.022,-0.0384,-0.0391,-0.0398,-0.0352,-0.0358,-0.0363,0,0,0,0,0,0.0004,0.0011,0.0001,0.0,-0.0022,-0.0039,-0.0045,-0.0078,-0.0076,-0.0093,-0.0152,-0.0139,-0.0292,-0.0248,-0.0253,-0.0266,-0.0381,-0.0389,-0.0397,-0.0349,-0.0357,-0.0363,0,0,0,0,0,0,0.0012,0.0005,-0.0007,-0.0004,-0.0025,-0.0049,-0.0057,-0.0066,-0.012,-0.0129,-0.0167,-0.0182,-0.0251,-0.0277,-0.0227,-0.0352,-0.0341,-0.035,-0.0303,-0.031,-0.0316,-0.0287,-0.0222,0,0,0,0,0,0.0017,0.0014,0.0001,-0.0001,-0.0004,-0.0026,-0.0034,-0.0055,-0.0094,-0.0117,-0.0155,-0.0219,-0.0288,-0.0311,-0.0376,-0.0414,-0.041,-0.0441,-0.0446,-0.045,-0.044,-0.0464,-0.0467,-0.0428,-0.0428,-0.0428,0,0,0.0022,0.0016,0.0015,-0.0,-0.0015,-0.002,-0.0036,-0.0047,-0.0061,-0.0114,-0.0159,-0.0232,-0.031,-0.0385,-0.0416,-0.0401,-0.0462,-0.0461,-0.0462,-0.045,-0.0472,-0.0475,-0.0477,-0.0434,-0.0433,-0.0432,0,0,0.0036,0.0025,0.0029,0.0019,0.0004,-0.0015,-0.0011,-0.0039,-0.0066,-0.012,-0.0182,-0.026,-0.0343,-0.0409,-0.045,-0.0521,-0.0498,-0.0557,-0.0541,-0.0564,-0.0565,-0.0566,-0.0547,-0.0547,-0.055,-0.055,-0.055,0,0.0041,0.0047,0.0026,0.003,0.0028,-0.0005,0.0001,-0.0029,-0.0084,-0.0108,-0.0139,-0.0293,-0.0353,-0.0435,-0.0492,-0.0523,-0.0527,-0.049,-0.0562,-0.0563,-0.0565,-0.0546,-0.0546,-0.0549,-0.0549,-0.0549,-0.0549,0,0.0057,0.0065,0.007,0.006,0.0045,0.0046,0.0013,-0.0017,-0.0054,-0.0092,-0.0184,-0.0287,-0.0372,-0.0424,-0.0484,-0.0544,-0.0538,-0.0562,-0.0517,-0.0564,-0.0544,-0.0544,-0.0547,-0.0547,-0.0548,-0.0548,0,0,0.0072,0.0081,0.0083,0.0097,0.0067,0.0065,0.0032,-0.0006,-0.0007,-0.0104,-0.0123,-0.0288,-0.0334,-0.039,-0.0465,-0.0508,-0.0532,-0.0546,-0.0548,-0.0479,-0.0555,-0.0543,-0.0542,-0.0565,-0.0565,-0.0566,-0.0526,0,0.0092,0.0121,0.0105,0.0126,0.0146,0.0104,0.0086,0.0041,-0.001,-0.0043,-0.0155,-0.0211,-0.0318,-0.0354,-0.0422,-0.0514,-0.0537,-0.0539,-0.0563,-0.0563,-0.0507,-0.0545,-0.0568,-0.0526,-0.0526,-0.0526,-0.0526,0,0.0121,0.0136,0.0168,0.0187,0.019,0.0192,0.0168,0.015,0.0083,0.004,-0.0044,-0.0117,-0.0219,-0.0285,-0.0424,-0.0423,-0.0487,-0.0548,-0.0547,-0.0549,-0.0554,-0.0484,-0.0527,-0.0527,-0.0527,-0.0527,-0.0527,0,0.0162,0.0187,0.0217,0.0223,0.0227,0.0231,0.0227,0.0177,0.019,0.0115,0.0102,-0.0027,-0.0074,-0.0194,-0.0356,-0.0382,-0.0479,-0.0512,-0.0547,-0.0544,-0.0577,-0.0577,-0.0575,-0.0575,-0.0576,-0.0576,-0.0576,0,0.0201,0.0234,0.0252,0.0276,0.033,0.0299,0.0345,0.0312,0.0299,0.0305,0.0167,0.0131,-0.006,-0.0154,-0.0297,-0.0424,-0.0423,-0.0539,-0.0542,-0.0562,-0.0562,-0.0575,-0.0575,-0.0574,-0.0574,-0.0575,-0.0575,0,0.0248,0.0259,0.0323,0.0346,0.0364,0.041,0.0465,0.048,0.0447,0.0455,0.0441,0.0283,0.012,-0.0046,-0.0226,-0.0325,-0.0451,-0.0486,-0.0458,-0.0462,-0.0505,-0.0505,-0.0501,-0.0501,-0.05,-0.05,-0.05,0,0.0268,0.0307,0.039,0.044,0.0463,0.0528,0.0556,0.0562,0.0576,0.0524,0.0516,0.0387,0.0248,0.0023,-0.0177,-0.0379,-0.0432,-0.0444,-0.0528,-0.0498,-0.0502,-0.0502,-0.0503,-0.0499,-0.0499,-0.0499,-0.0499,0,0.0316,0.036,0.0408,0.0512,0.0576,0.064,0.0683,0.0715,0.0686,0.0687,0.0581,0.0434,0.0257,0.0026,-0.0118,-0.0285,-0.0415,-0.044,-0.0444,-0.0522,-0.0495,-0.0499,-0.05,-0.0497,-0.0497,-0.0497,-0.0497,0,0.036,0.0407,0.0476,0.0561,0.065,0.0683,0.0721,0.0709,0.0737,0.0677,0.0645,0.0422,0.032,0.0076,-0.0075,-0.0221,-0.0278,-0.0308,-0.032,-0.0323,-0.0314,-0.0256,-0.018,0,0,0,0,0,0.0386,0.0418,0.05,0.057,0.0651,0.0699,0.0752,0.0764,0.0761,0.0704,0.0686,0.0507,0.0249,0.0117,-0.0029,-0.0092,-0.031,-0.0264,-0.0352,-0.0488,-0.049,-0.0514,0,0,0,0,0,0,0.0403,0.0479,0.049,0.0549,0.0591,0.0658,0.0701,0.0702,0.0673,0.0657,0.051,0.0489,0.022,0.032,-0.0035,-0.008,-0.0147,-0.0375,-0.0377,-0.0487,-0.0489,-0.049,-0.0515,0,0,0,0,0]}]]